ROMMA est une association bénévole à but non lucratif. Votre soutien est indispensable : ADHERER à ROMMA ou FAIRE un DON

Chambon - (38, Isère)

Oisans (2460 m)   Longitude: 06° 10' 42" E   Latitude: 45° 01' 32" N Station partenaire n°803
 

Détail journalier du     <<     >>

Température Humidité Vent Dir Rafale Dir. rafale Neige 1 Neige 2
Heure (°C) (%) (km/h) (km/h) (cm) (cm)
01:00 11.0804ENE16ENE41
02:00 11.2786NNE13NE31
03:00 11.2756NNE14NNO41
04:00 12.1625SSO18SO41
05:00 12.0607SSO17SSO42
06:00 11.7667S20S41
07:00 11.9688S21S42
08:00 12.96010S26SSO22
09:00 14.0547SSO24SSO12
10:00 15.5496S24S22
11:00 16.3547S27S02
12:00 16.95210SSO28SO12
13:00 16.75311SO29SO02
14:00 18.05210SSO31SSO01
15:00 18.25111SSO33OSO01
16:00 19.24710SSO32SO01
17:00 18.84813SSO39O01
18:00 19.14813SSO38SSO21
19:00 17.45420SO43OSO11
20:00 16.95717S42OSO01
21:00 15.2638SE31SE02
22:00 14.7668SE30SE02
23:00 14.3695E24ESE02
minuit 13.6744NNE19NNE13

Graphique du 09-08-2019

 

Serveur OMMA